,,PressureMeas_1m,,PRMeasQMR101_1,,RHStat155_1m_1,,SRMeasQMS101R_1m,,TAStat155_1m_1,,GenWind_1,,GenWind_1,
2017-09-09, 00:00:06,VALID,917.735,VALID,0.0,VALID,98.687,VALID,0.004,VALID,19.067,VALID,52.0,VALID,0.0,
2017-09-09, 00:01:06,VALID,917.754,VALID,0.0,VALID,98.692,VALID,-0.001,VALID,19.069,VALID,48.0,VALID,0.013,
2017-09-09, 00:02:06,VALID,917.768,VALID,0.0,VALID,98.72,VALID,-0.0,VALID,19.091,VALID,36.0,VALID,0.031,
2017-09-09, 00:03:06,VALID,917.775,VALID,0.0,VALID,98.739,VALID,-0.008,VALID,19.101,VALID,11.0,VALID,0.013,
2017-09-09, 00:04:06,VALID,917.787,VALID,0.0,VALID,98.76,VALID,0.005,VALID,19.133,VALID,2.0,VALID,0.007,
2017-09-09, 00:05:06,VALID,917.782,VALID,0.0,VALID,98.772,VALID,0.005,VALID,19.166,VALID,2.0,VALID,0.0,
2017-09-09, 00:06:06,VALID,917.786,VALID,0.0,VALID,98.784,VALID,0.014,VALID,19.193,VALID,2.0,VALID,0.0,
2017-09-09, 00:07:06,VALID,917.779,VALID,0.0,VALID,98.784,VALID,0.004,VALID,19.189,VALID,2.0,VALID,0.0,
2017-09-09, 00:08:06,VALID,917.788,VALID,0.0,VALID,98.736,VALID,0.003,VALID,19.119,VALID,2.0,VALID,0.0,
2017-09-09, 00:09:06,VALID,917.803,VALID,0.0,VALID,98.72,VALID,0.005,VALID,19.055,VALID,2.0,VALID,0.09,
2017-09-09, 00:10:06,VALID,917.806,VALID,0.0,VALID,98.693,VALID,-0.0,VALID,19.015,VALID,32.0,VALID,0.329,
2017-09-09, 00:11:06,VALID,917.802,VALID,0.0,VALID,98.707,VALID,-0.0,VALID,18.988,VALID,40.0,VALID,0.379,
2017-09-09, 00:12:06,VALID,917.794,VALID,0.0,VALID,98.744,VALID,0.009,VALID,19.054,VALID,31.0,VALID,0.313,
2017-09-09, 00:13:06,VALID,917.784,VALID,0.0,VALID,98.784,VALID,0.005,VALID,19.132,VALID,23.0,VALID,0.252,
2017-09-09, 00:14:06,VALID,917.773,VALID,0.0,VALID,98.779,VALID,0.004,VALID,19.151,VALID,23.0,VALID,0.179,
2017-09-09, 00:15:06,VALID,917.755,VALID,0.0,VALID,98.766,VALID,0.002,VALID,19.169,VALID,23.0,VALID,0.27,
2017-09-09, 00:16:06,VALID,917.736,VALID,0.0,VALID,98.758,VALID,-0.011,VALID,19.156,VALID,21.0,VALID,0.183,
2017-09-09, 00:17:06,VALID,917.734,VALID,0.0,VALID,98.739,VALID,0.005,VALID,19.145,VALID,19.0,VALID,0.186,
2017-09-09, 00:18:06,VALID,917.736,VALID,0.0,VALID,98.754,VALID,0.032,VALID,19.147,VALID,17.0,VALID,0.178,
2017-09-09, 00:19:06,VALID,917.74,VALID,0.0,VALID,98.735,VALID,0.015,VALID,19.15,VALID,12.0,VALID,0.422,
2017-09-09, 00:20:06,VALID,917.746,VALID,0.0,VALID,98.735,VALID,-0.008,VALID,19.146,VALID,4.0,VALID,0.593,
2017-09-09, 00:21:06,VALID,917.72,VALID,0.0,VALID,98.761,VALID,0.012,VALID,19.158,VALID,360.0,VALID,0.611,
2017-09-09, 00:22:06,VALID,917.702,VALID,0.0,VALID,98.755,VALID,0.017,VALID,19.18,VALID,5.0,VALID,0.633,
2017-09-09, 00:23:06,VALID,917.681,VALID,0.0,VALID,98.774,VALID,0.007,VALID,19.204,VALID,7.0,VALID,0.427,
2017-09-09, 00:24:06,VALID,917.669,VALID,0.0,VALID,98.765,VALID,0.006,VALID,19.211,VALID,35.0,VALID,0.592,
2017-09-09, 00:25:06,VALID,917.644,VALID,0.0,VALID,98.765,VALID,0.0,VALID,19.214,VALID,47.0,VALID,0.752,
2017-09-09, 00:26:06,VALID,917.63,VALID,0.0,VALID,98.776,VALID,0.006,VALID,19.21,VALID,50.0,VALID,0.962,
2017-09-09, 00:27:06,VALID,917.61,VALID,0.0,VALID,98.755,VALID,0.002,VALID,19.193,VALID,47.0,VALID,0.846,
2017-09-09, 00:28:06,VALID,917.597,VALID,0.0,VALID,98.753,VALID,-0.009,VALID,19.192,VALID,31.0,VALID,0.411,
2017-09-09, 00:29:06,VALID,917.577,VALID,0.0,VALID,98.743,VALID,0.001,VALID,19.182,VALID,28.0,VALID,0.263,
2017-09-09, 00:30:06,VALID,917.55,VALID,0.0,VALID,98.746,VALID,0.009,VALID,19.182,VALID,32.0,VALID,0.281,
2017-09-09, 00:31:06,VALID,917.532,VALID,0.0,VALID,98.748,VALID,0.005,VALID,19.182,VALID,23.0,VALID,0.152,
2017-09-09, 00:32:06,VALID,917.515,VALID,0.0,VALID,98.747,VALID,-0.003,VALID,19.189,VALID,41.0,VALID,0.332,
2017-09-09, 00:33:06,VALID,917.5,VALID,0.0,VALID,98.726,VALID,-0.013,VALID,19.171,VALID,48.0,VALID,0.536,
2017-09-09, 00:34:06,VALID,917.497,VALID,0.0,VALID,98.725,VALID,-0.0,VALID,19.142,VALID,51.0,VALID,0.501,
2017-09-09, 00:35:06,VALID,917.496,VALID,0.0,VALID,98.709,VALID,0.009,VALID,19.123,VALID,51.0,VALID,0.459,
2017-09-09, 00:36:06,VALID,917.497,VALID,0.0,VALID,98.715,VALID,-0.006,VALID,19.113,VALID,51.0,VALID,0.414,
2017-09-09, 00:37:06,VALID,917.501,VALID,0.0,VALID,98.72,VALID,-0.004,VALID,19.105,VALID,43.0,VALID,0.242,
2017-09-09, 00:38:06,VALID,917.481,VALID,0.0,VALID,98.722,VALID,-0.001,VALID,19.116,VALID,40.0,VALID,0.299,
2017-09-09, 00:39:06,VALID,917.47,VALID,0.0,VALID,98.734,VALID,-0.019,VALID,19.125,VALID,39.0,VALID,0.152,
2017-09-09, 00:40:06,VALID,917.455,VALID,0.0,VALID,98.743,VALID,0.006,VALID,19.136,VALID,37.0,VALID,0.061,
2017-09-09, 00:41:06,VALID,917.438,VALID,0.0,VALID,98.781,VALID,0.007,VALID,19.159,VALID,28.0,VALID,0.043,
2017-09-09, 00:42:06,VALID,917.42,VALID,0.0,VALID,98.786,VALID,-0.006,VALID,19.193,VALID,22.0,VALID,0.0,
2017-09-09, 00:43:06,VALID,917.405,VALID,0.0,VALID,98.795,VALID,-0.004,VALID,19.221,VALID,356.0,VALID,0.04,
2017-09-09, 00:44:06,VALID,917.407,VALID,0.0,VALID,98.789,VALID,-0.016,VALID,19.238,VALID,350.0,VALID,0.0,
2017-09-09, 00:45:06,VALID,917.4,VALID,0.0,VALID,98.783,VALID,-0.014,VALID,19.259,VALID,350.0,VALID,0.013,
2017-09-09, 00:46:06,VALID,917.397,VALID,0.0,VALID,98.79,VALID,-0.0,VALID,19.277,VALID,351.0,VALID,0.021,
2017-09-09, 00:47:06,VALID,917.389,VALID,0.0,VALID,98.78,VALID,-0.011,VALID,19.264,VALID,18.0,VALID,0.08,
2017-09-09, 00:48:06,VALID,917.39,VALID,0.0,VALID,98.79,VALID,-0.018,VALID,19.243,VALID,23.0,VALID,0.298,
2017-09-09, 00:49:06,VALID,917.392,VALID,0.0,VALID,98.774,VALID,-0.022,VALID,19.24,VALID,13.0,VALID,0.386,
2017-09-09, 00:50:06,VALID,917.392,VALID,0.0,VALID,98.785,VALID,-0.012,VALID,19.25,VALID,17.0,VALID,0.239,
2017-09-09, 00:51:06,VALID,917.379,VALID,0.0,VALID,98.819,VALID,0.001,VALID,19.293,VALID,359.0,VALID,0.388,
2017-09-09, 00:52:06,VALID,917.373,VALID,0.0,VALID,98.833,VALID,-0.003,VALID,19.338,VALID,338.0,VALID,0.247,
2017-09-09, 00:53:06,VALID,917.369,VALID,0.0,VALID,98.848,VALID,0.004,VALID,19.369,VALID,291.0,VALID,0.315,
2017-09-09, 00:54:06,VALID,917.363,VALID,0.0,VALID,98.809,VALID,0.008,VALID,19.364,VALID,280.0,VALID,0.327,
2017-09-09, 00:55:06,VALID,917.341,VALID,0.0,VALID,98.81,VALID,-0.0,VALID,19.348,VALID,275.0,VALID,0.226,
2017-09-09, 00:56:06,VALID,917.349,VALID,0.0,VALID,98.801,VALID,-0.006,VALID,19.325,VALID,274.0,VALID,0.263,
2017-09-09, 00:57:06,VALID,917.335,VALID,0.0,VALID,98.815,VALID,-0.005,VALID,19.333,VALID,273.0,VALID,0.018,
2017-09-09, 00:58:06,VALID,917.332,VALID,0.0,VALID,98.848,VALID,-0.017,VALID,19.357,VALID,273.0,VALID,0.0,
2017-09-09, 00:59:06,VALID,917.331,VALID,0.0,VALID,98.845,VALID,-0.005,VALID,19.361,VALID,291.0,VALID,0.061,
2017-09-09, 01:00:06,VALID,917.316,VALID,0.0,VALID,98.836,VALID,-0.02,VALID,19.38,VALID,17.0,VALID,0.333,
2017-09-09, 01:01:06,VALID,917.31,VALID,0.0,VALID,98.825,VALID,-0.021,VALID,19.358,VALID,41.0,VALID,0.568,
2017-09-09, 01:02:06,VALID,917.304,VALID,0.0,VALID,98.836,VALID,-0.012,VALID,19.332,VALID,40.0,VALID,0.468,
2017-09-09, 01:03:06,VALID,917.296,VALID,0.0,VALID,98.82,VALID,0.002,VALID,19.33,VALID,37.0,VALID,0.404,
2017-09-09, 01:04:06,VALID,917.282,VALID,0.0,VALID,98.847,VALID,-0.013,VALID,19.358,VALID,29.0,VALID,0.18,
2017-09-09, 01:05:06,VALID,917.268,VALID,0.0,VALID,98.847,VALID,-0.011,VALID,19.363,VALID,16.0,VALID,0.136,
2017-09-09, 01:06:06,VALID,917.253,VALID,0.0,VALID,98.846,VALID,-0.024,VALID,19.391,VALID,13.0,VALID,0.069,
2017-09-09, 01:07:06,VALID,917.234,VALID,0.0,VALID,98.857,VALID,-0.011,VALID,19.43,VALID,18.0,VALID,0.308,
2017-09-09, 01:08:06,VALID,917.222,VALID,0.0,VALID,98.869,VALID,0.001,VALID,19.442,VALID,18.0,VALID,0.231,
2017-09-09, 01:09:06,VALID,917.203,VALID,0.0,VALID,98.865,VALID,-0.011,VALID,19.447,VALID,48.0,VALID,0.265,
2017-09-09, 01:10:06,VALID,917.204,VALID,0.0,VALID,98.845,VALID,-0.017,VALID,19.401,VALID,72.0,VALID,0.601,
2017-09-09, 01:11:06,VALID,917.174,VALID,0.0,VALID,98.866,VALID,-0.019,VALID,19.385,VALID,87.0,VALID,0.592,
2017-09-09, 01:12:06,VALID,917.162,VALID,0.0,VALID,98.865,VALID,-0.009,VALID,19.38,VALID,103.0,VALID,0.61,
2017-09-09, 01:13:06,VALID,917.145,VALID,0.0,VALID,98.835,VALID,0.008,VALID,19.368,VALID,105.0,VALID,0.441,
2017-09-09, 01:14:06,VALID,917.135,VALID,0.0,VALID,98.838,VALID,-0.012,VALID,19.35,VALID,109.0,VALID,0.418,
2017-09-09, 01:15:06,VALID,917.119,VALID,0.0,VALID,98.836,VALID,-0.015,VALID,19.351,VALID,108.0,VALID,0.284,
2017-09-09, 01:16:06,VALID,917.11,VALID,0.0,VALID,98.841,VALID,-0.004,VALID,19.357,VALID,110.0,VALID,0.255,
2017-09-09, 01:17:06,VALID,917.095,VALID,0.0,VALID,98.846,VALID,-0.004,VALID,19.35,VALID,111.0,VALID,0.351,
2017-09-09, 01:18:06,VALID,917.086,VALID,0.0,VALID,98.859,VALID,0.009,VALID,19.359,VALID,109.0,VALID,0.211,
2017-09-09, 01:19:06,VALID,917.08,VALID,0.0,VALID,98.856,VALID,0.001,VALID,19.362,VALID,109.0,VALID,0.334,
2017-09-09, 01:20:06,VALID,917.085,VALID,0.0,VALID,98.857,VALID,-0.002,VALID,19.363,VALID,108.0,VALID,0.4,
2017-09-09, 01:21:06,VALID,917.091,VALID,0.0,VALID,98.853,VALID,0.001,VALID,19.36,VALID,117.0,VALID,0.348,
2017-09-09, 01:22:06,VALID,917.094,VALID,0.0,VALID,98.857,VALID,0.004,VALID,19.37,VALID,129.0,VALID,0.405,
2017-09-09, 01:23:06,VALID,917.107,VALID,0.0,VALID,98.847,VALID,0.003,VALID,19.346,VALID,112.0,VALID,0.527,
2017-09-09, 01:24:06,VALID,917.099,VALID,0.0,VALID,98.847,VALID,-0.025,VALID,19.34,VALID,89.0,VALID,0.67,
2017-09-09, 01:25:06,VALID,917.094,VALID,0.0,VALID,98.851,VALID,-0.009,VALID,19.323,VALID,82.0,VALID,0.693,
2017-09-09, 01:26:06,VALID,917.089,VALID,0.0,VALID,98.859,VALID,0.003,VALID,19.323,VALID,75.0,VALID,0.556,
2017-09-09, 01:27:06,VALID,917.086,VALID,0.0,VALID,98.85,VALID,-0.01,VALID,19.324,VALID,68.0,VALID,0.588,
2017-09-09, 01:28:06,VALID,917.082,VALID,0.0,VALID,98.846,VALID,-0.007,VALID,19.305,VALID,81.0,VALID,0.505,
2017-09-09, 01:29:06,VALID,917.076,VALID,0.0,VALID,98.854,VALID,0.004,VALID,19.295,VALID,100.0,VALID,0.523,
2017-09-09, 01:30:06,VALID,917.066,VALID,0.0,VALID,98.875,VALID,0.017,VALID,19.299,VALID,119.0,VALID,0.454,
2017-09-09, 01:31:06,VALID,917.063,VALID,0.0,VALID,98.877,VALID,0.007,VALID,19.316,VALID,123.0,VALID,0.346,
2017-09-09, 01:32:06,VALID,917.049,VALID,0.0,VALID,98.872,VALID,0.019,VALID,19.321,VALID,139.0,VALID,0.456,
2017-09-09, 01:33:06,VALID,917.052,VALID,0.0,VALID,98.903,VALID,0.023,VALID,19.318,VALID,143.0,VALID,0.33,
2017-09-09, 01:34:06,VALID,917.053,VALID,0.0,VALID,98.886,VALID,0.015,VALID,19.349,VALID,155.0,VALID,0.35,
2017-09-09, 01:35:06,VALID,917.048,VALID,0.0,VALID,98.89,VALID,0.031,VALID,19.363,VALID,155.0,VALID,0.447,
2017-09-09, 01:36:06,VALID,917.059,VALID,0.0,VALID,98.903,VALID,0.027,VALID,19.378,VALID,161.0,VALID,0.549,
2017-09-09, 01:37:06,VALID,917.051,VALID,0.0,VALID,98.907,VALID,0.018,VALID,19.374,VALID,156.0,VALID,0.542,
2017-09-09, 01:38:06,VALID,917.044,VALID,0.0,VALID,98.878,VALID,0.015,VALID,19.354,VALID,154.0,VALID,0.564,
2017-09-09, 01:39:06,VALID,917.033,VALID,0.0,VALID,98.89,VALID,0.023,VALID,19.348,VALID,151.0,VALID,0.522,
2017-09-09, 01:40:06,VALID,917.03,VALID,0.0,VALID,98.892,VALID,0.017,VALID,19.339,VALID,158.0,VALID,0.445,
2017-09-09, 01:41:06,VALID,917.018,VALID,0.0,VALID,98.907,VALID,0.007,VALID,19.354,VALID,172.0,VALID,0.072,
2017-09-09, 01:42:06,VALID,917.018,VALID,0.0,VALID,98.91,VALID,0.007,VALID,19.386,VALID,181.0,VALID,0.215,
2017-09-09, 01:43:06,VALID,917.017,VALID,0.0,VALID,98.925,VALID,0.015,VALID,19.406,VALID,201.0,VALID,0.063,
2017-09-09, 01:44:06,VALID,917.004,VALID,0.0,VALID,98.913,VALID,0.004,VALID,19.414,VALID,241.0,VALID,0.334,
2017-09-09, 01:45:06,VALID,917.008,VALID,0.0,VALID,98.894,VALID,0.001,VALID,19.392,VALID,247.0,VALID,0.291,
2017-09-09, 01:46:06,VALID,916.98,VALID,0.0,VALID,98.902,VALID,-0.001,VALID,19.387,VALID,246.0,VALID,0.052,
2017-09-09, 01:47:06,VALID,916.958,VALID,0.0,VALID,98.919,VALID,-0.004,VALID,19.41,VALID,209.0,VALID,0.173,
2017-09-09, 01:48:06,VALID,916.938,VALID,0.0,VALID,98.926,VALID,0.002,VALID,19.408,VALID,195.0,VALID,0.374,
2017-09-09, 01:49:06,VALID,916.918,VALID,0.0,VALID,98.912,VALID,0.002,VALID,19.411,VALID,185.0,VALID,0.336,
2017-09-09, 01:50:06,VALID,916.901,VALID,0.0,VALID,98.908,VALID,-0.003,VALID,19.38,VALID,187.0,VALID,0.25,
2017-09-09, 01:51:06,VALID,916.898,VALID,0.0,VALID,98.903,VALID,0.008,VALID,19.382,VALID,207.0,VALID,0.103,
2017-09-09, 01:52:06,VALID,916.905,VALID,0.0,VALID,98.905,VALID,0.007,VALID,19.361,VALID,204.0,VALID,0.383,
2017-09-09, 01:53:06,VALID,916.899,VALID,0.0,VALID,98.896,VALID,-0.006,VALID,19.354,VALID,192.0,VALID,0.408,
2017-09-09, 01:54:06,VALID,916.909,VALID,0.0,VALID,98.911,VALID,0.013,VALID,19.358,VALID,195.0,VALID,0.469,
2017-09-09, 01:55:06,VALID,916.913,VALID,0.0,VALID,98.912,VALID,-0.002,VALID,19.358,VALID,195.0,VALID,0.255,
2017-09-09, 01:56:06,VALID,916.908,VALID,0.0,VALID,98.935,VALID,0.005,VALID,19.378,VALID,190.0,VALID,0.165,
2017-09-09, 01:57:06,VALID,916.898,VALID,0.0,VALID,98.923,VALID,0.015,VALID,19.373,VALID,159.0,VALID,0.293,
2017-09-09, 01:58:06,VALID,916.893,VALID,0.0,VALID,98.921,VALID,0.015,VALID,19.38,VALID,162.0,VALID,0.155,
2017-09-09, 01:59:06,VALID,916.871,VALID,0.0,VALID,98.933,VALID,0.006,VALID,19.385,VALID,171.0,VALID,0.246,
2017-09-09, 02:00:06,VALID,916.863,VALID,0.0,VALID,98.922,VALID,0.012,VALID,19.383,VALID,171.0,VALID,0.373,
2017-09-09, 02:01:06,VALID,916.857,VALID,0.0,VALID,98.94,VALID,0.012,VALID,19.395,VALID,164.0,VALID,0.289,
2017-09-09, 02:02:06,VALID,916.844,VALID,0.0,VALID,98.951,VALID,0.01,VALID,19.414,VALID,169.0,VALID,0.175,
2017-09-09, 02:03:06,VALID,916.854,VALID,0.0,VALID,98.92,VALID,0.023,VALID,19.406,VALID,167.0,VALID,0.182,
2017-09-09, 02:04:06,VALID,916.859,VALID,0.0,VALID,98.929,VALID,0.011,VALID,19.424,VALID,172.0,VALID,0.185,
2017-09-09, 02:05:06,VALID,916.87,VALID,0.0,VALID,98.953,VALID,0.004,VALID,19.423,VALID,164.0,VALID,0.338,
2017-09-09, 02:06:06,VALID,916.884,VALID,0.0,VALID,98.938,VALID,-0.0,VALID,19.397,VALID,160.0,VALID,0.127,
2017-09-09, 02:07:06,VALID,916.883,VALID,0.0,VALID,98.925,VALID,0.008,VALID,19.388,VALID,161.0,VALID,0.02,
2017-09-09, 02:08:06,VALID,916.889,VALID,0.0,VALID,98.931,VALID,0.014,VALID,19.378,VALID,161.0,VALID,0.0,
2017-09-09, 02:09:06,VALID,916.882,VALID,0.0,VALID,98.929,VALID,0.027,VALID,19.366,VALID,161.0,VALID,0.0,
2017-09-09, 02:10:06,VALID,916.876,VALID,0.0,VALID,98.951,VALID,0.013,VALID,19.379,VALID,161.0,VALID,0.0,
2017-09-09, 02:11:06,VALID,916.867,VALID,0.0,VALID,98.936,VALID,0.013,VALID,19.396,VALID,161.0,VALID,0.0,
2017-09-09, 02:12:06,VALID,916.854,VALID,0.0,VALID,98.936,VALID,0.019,VALID,19.392,VALID,161.0,VALID,0.0,
2017-09-09, 02:13:06,VALID,916.846,VALID,0.0,VALID,98.948,VALID,0.007,VALID,19.387,VALID,161.0,VALID,0.0,
2017-09-09, 02:14:06,VALID,916.844,VALID,0.0,VALID,98.926,VALID,0.019,VALID,19.377,VALID,160.0,VALID,0.0,
2017-09-09, 02:15:06,VALID,916.859,VALID,0.0,VALID,98.934,VALID,0.007,VALID,19.37,VALID,113.0,VALID,0.0,
2017-09-09, 02:16:06,VALID,916.867,VALID,0.0,VALID,98.939,VALID,0.011,VALID,19.416,VALID,59.0,VALID,0.124,
2017-09-09, 02:17:06,VALID,916.876,VALID,0.0,VALID,98.933,VALID,0.001,VALID,19.426,VALID,60.0,VALID,0.409,
2017-09-09, 02:18:06,VALID,916.888,VALID,0.0,VALID,98.929,VALID,0.011,VALID,19.398,VALID,60.0,VALID,0.437,
2017-09-09, 02:19:06,VALID,916.895,VALID,0.0,VALID,98.941,VALID,0.009,VALID,19.412,VALID,59.0,VALID,0.518,
2017-09-09, 02:20:06,VALID,916.895,VALID,0.0,VALID,98.943,VALID,0.012,VALID,19.423,VALID,59.0,VALID,0.548,
2017-09-09, 02:21:06,VALID,916.904,VALID,0.0,VALID,98.923,VALID,0.015,VALID,19.417,VALID,57.0,VALID,0.443,
2017-09-09, 02:22:06,VALID,916.89,VALID,0.0,VALID,98.94,VALID,0.01,VALID,19.428,VALID,47.0,VALID,0.435,
2017-09-09, 02:23:06,VALID,916.88,VALID,0.0,VALID,98.933,VALID,0.017,VALID,19.432,VALID,52.0,VALID,0.373,
2017-09-09, 02:24:06,VALID,916.881,VALID,0.0,VALID,98.951,VALID,0.007,VALID,19.426,VALID,54.0,VALID,0.307,
2017-09-09, 02:25:06,VALID,916.872,VALID,0.0,VALID,98.94,VALID,-0.004,VALID,19.405,VALID,65.0,VALID,0.327,
2017-09-09, 02:26:06,VALID,916.864,VALID,0.0,VALID,98.935,VALID,0.005,VALID,19.397,VALID,67.0,VALID,0.327,
2017-09-09, 02:27:06,VALID,916.849,VALID,0.0,VALID,98.954,VALID,-0.007,VALID,19.402,VALID,67.0,VALID,0.382,
2017-09-09, 02:28:06,VALID,916.828,VALID,0.0,VALID,98.944,VALID,-0.003,VALID,19.411,VALID,83.0,VALID,0.432,
2017-09-09, 02:29:06,VALID,916.818,VALID,0.0,VALID,98.939,VALID,0.01,VALID,19.415,VALID,92.0,VALID,0.515,
2017-09-09, 02:30:06,VALID,916.796,VALID,0.0,VALID,98.941,VALID,-0.005,VALID,19.43,VALID,116.0,VALID,0.463,
2017-09-09, 02:31:06,VALID,916.776,VALID,0.0,VALID,98.936,VALID,-0.013,VALID,19.45,VALID,121.0,VALID,0.392,
2017-09-09, 02:32:06,VALID,916.763,VALID,0.0,VALID,98.943,VALID,-0.005,VALID,19.472,VALID,141.0,VALID,0.545,
2017-09-09, 02:33:06,VALID,916.739,VALID,0.0,VALID,98.972,VALID,0.009,VALID,19.504,VALID,150.0,VALID,0.88,
2017-09-09, 02:34:06,VALID,916.739,VALID,0.0,VALID,98.925,VALID,0.004,VALID,19.477,VALID,154.0,VALID,1.165,
2017-09-09, 02:35:06,VALID,916.703,VALID,0.0,VALID,98.924,VALID,-0.011,VALID,19.441,VALID,149.0,VALID,1.17,
2017-09-09, 02:36:06,VALID,916.689,VALID,0.0,VALID,98.91,VALID,-0.001,VALID,19.385,VALID,147.0,VALID,1.42,
2017-09-09, 02:37:06,VALID,916.66,VALID,0.0,VALID,98.89,VALID,-0.006,VALID,19.358,VALID,152.0,VALID,1.209,
2017-09-09, 02:38:06,VALID,916.64,VALID,0.0,VALID,98.912,VALID,-0.008,VALID,19.358,VALID,156.0,VALID,0.973,
2017-09-09, 02:39:06,VALID,916.633,VALID,0.0,VALID,98.93,VALID,0.008,VALID,19.37,VALID,159.0,VALID,0.66,
2017-09-09, 02:40:06,VALID,916.608,VALID,0.0,VALID,98.921,VALID,-0.005,VALID,19.376,VALID,150.0,VALID,0.569,
2017-09-09, 02:41:06,VALID,916.595,VALID,0.0,VALID,98.96,VALID,0.003,VALID,19.363,VALID,131.0,VALID,0.515,
2017-09-09, 02:42:06,VALID,916.568,VALID,0.0,VALID,98.907,VALID,0.007,VALID,19.345,VALID,129.0,VALID,0.523,
2017-09-09, 02:43:06,VALID,916.558,VALID,0.0,VALID,98.916,VALID,-0.006,VALID,19.337,VALID,128.0,VALID,0.229,
2017-09-09, 02:44:06,VALID,916.529,VALID,0.0,VALID,98.919,VALID,-0.02,VALID,19.341,VALID,128.0,VALID,0.089,
2017-09-09, 02:45:06,VALID,916.507,VALID,0.0,VALID,98.927,VALID,-0.026,VALID,19.359,VALID,128.0,VALID,0.0,
2017-09-09, 02:46:06,VALID,916.489,VALID,0.0,VALID,98.942,VALID,-0.015,VALID,19.376,VALID,128.0,VALID,0.0,
2017-09-09, 02:47:06,VALID,916.488,VALID,0.0,VALID,98.946,VALID,-0.007,VALID,19.402,VALID,128.0,VALID,0.0,
2017-09-09, 02:48:06,VALID,916.49,VALID,0.0,VALID,98.971,VALID,-0.016,VALID,19.432,VALID,128.0,VALID,0.0,
2017-09-09, 02:49:06,VALID,916.484,VALID,0.0,VALID,98.954,VALID,-0.009,VALID,19.448,VALID,128.0,VALID,0.0,
2017-09-09, 02:50:06,VALID,916.482,VALID,0.0,VALID,98.951,VALID,-0.004,VALID,19.456,VALID,128.0,VALID,0.0,
2017-09-09, 02:51:06,VALID,916.498,VALID,0.0,VALID,98.95,VALID,-0.011,VALID,19.448,VALID,128.0,VALID,0.0,
2017-09-09, 02:52:06,VALID,916.491,VALID,0.0,VALID,98.955,VALID,-0.002,VALID,19.459,VALID,128.0,VALID,0.0,
2017-09-09, 02:53:06,VALID,916.493,VALID,0.0,VALID,98.978,VALID,-0.01,VALID,19.491,VALID,128.0,VALID,0.009,
2017-09-09, 02:54:06,VALID,916.483,VALID,0.0,VALID,98.962,VALID,0.001,VALID,19.51,VALID,128.0,VALID,0.0,
2017-09-09, 02:55:06,VALID,916.475,VALID,0.0,VALID,98.966,VALID,-0.01,VALID,19.526,VALID,111.0,VALID,0.003,
2017-09-09, 02:56:06,VALID,916.466,VALID,0.0,VALID,98.981,VALID,-0.004,VALID,19.558,VALID,94.0,VALID,0.025,
2017-09-09, 02:57:06,VALID,916.452,VALID,0.0,VALID,98.982,VALID,0.013,VALID,19.562,VALID,65.0,VALID,0.0,
2017-09-09, 02:58:06,VALID,916.451,VALID,0.0,VALID,98.946,VALID,0.021,VALID,19.529,VALID,23.0,VALID,0.0,
2017-09-09, 02:59:06,VALID,916.448,VALID,0.0,VALID,98.944,VALID,0.016,VALID,19.507,VALID,23.0,VALID,0.0,
2017-09-09, 03:00:06,VALID,916.438,VALID,0.0,VALID,98.922,VALID,0.021,VALID,19.475,VALID,15.0,VALID,0.0,
2017-09-09, 03:01:06,VALID,916.424,VALID,0.0,VALID,98.916,VALID,0.002,VALID,19.443,VALID,14.0,VALID,0.0,
2017-09-09, 03:02:06,VALID,916.414,VALID,0.0,VALID,98.922,VALID,0.001,VALID,19.419,VALID,14.0,VALID,0.0,
2017-09-09, 03:03:06,VALID,916.399,VALID,0.0,VALID,98.931,VALID,-0.0,VALID,19.399,VALID,14.0,VALID,0.0,
2017-09-09, 03:04:06,VALID,916.385,VALID,0.0,VALID,98.965,VALID,0.014,VALID,19.409,VALID,14.0,VALID,0.0,
2017-09-09, 03:05:06,VALID,916.377,VALID,0.0,VALID,98.948,VALID,0.005,VALID,19.43,VALID,14.0,VALID,0.0,
2017-09-09, 03:06:06,VALID,916.369,VALID,0.0,VALID,98.946,VALID,-0.003,VALID,19.44,VALID,14.0,VALID,0.0,
2017-09-09, 03:07:06,VALID,916.357,VALID,0.0,VALID,98.967,VALID,0.007,VALID,19.443,VALID,14.0,VALID,0.0,
2017-09-09, 03:08:06,VALID,916.354,VALID,0.0,VALID,98.959,VALID,0.011,VALID,19.433,VALID,14.0,VALID,0.0,
2017-09-09, 03:09:06,VALID,916.33,VALID,0.0,VALID,98.963,VALID,-0.002,VALID,19.427,VALID,14.0,VALID,0.0,
2017-09-09, 03:10:06,VALID,916.32,VALID,0.0,VALID,98.945,VALID,0.01,VALID,19.423,VALID,14.0,VALID,0.0,
2017-09-09, 03:11:06,VALID,916.301,VALID,0.0,VALID,98.998,VALID,0.006,VALID,19.46,VALID,14.0,VALID,0.0,
2017-09-09, 03:12:06,VALID,916.291,VALID,0.0,VALID,98.957,VALID,0.014,VALID,19.466,VALID,14.0,VALID,0.0,
2017-09-09, 03:13:06,VALID,916.29,VALID,0.0,VALID,98.952,VALID,0.025,VALID,19.463,VALID,80.0,VALID,0.256,
2017-09-09, 03:14:06,VALID,916.29,VALID,0.0,VALID,98.958,VALID,0.018,VALID,19.458,VALID,201.0,VALID,0.218,
2017-09-09, 03:15:06,VALID,916.29,VALID,0.0,VALID,98.955,VALID,0.028,VALID,19.461,VALID,186.0,VALID,0.335,
2017-09-09, 03:16:06,VALID,916.283,VALID,0.0,VALID,98.955,VALID,0.024,VALID,19.44,VALID,181.0,VALID,0.145,
2017-09-09, 03:17:06,VALID,916.283,VALID,0.0,VALID,98.973,VALID,-0.004,VALID,19.448,VALID,173.0,VALID,0.233,
2017-09-09, 03:18:06,VALID,916.281,VALID,0.0,VALID,98.953,VALID,0.01,VALID,19.445,VALID,174.0,VALID,0.255,
2017-09-09, 03:19:06,VALID,916.296,VALID,0.0,VALID,98.933,VALID,-0.002,VALID,19.429,VALID,174.0,VALID,0.168,
2017-09-09, 03:20:06,VALID,916.287,VALID,0.0,VALID,98.927,VALID,0.011,VALID,19.406,VALID,174.0,VALID,0.06,
2017-09-09, 03:21:06,VALID,916.284,VALID,0.0,VALID,98.936,VALID,0.006,VALID,19.402,VALID,173.0,VALID,0.052,
2017-09-09, 03:22:06,VALID,916.285,VALID,0.0,VALID,98.957,VALID,0.009,VALID,19.414,VALID,173.0,VALID,0.098,
2017-09-09, 03:23:06,VALID,916.276,VALID,0.0,VALID,98.961,VALID,0.008,VALID,19.415,VALID,173.0,VALID,0.042,
2017-09-09, 03:24:06,VALID,916.258,VALID,0.0,VALID,98.958,VALID,0.018,VALID,19.402,VALID,173.0,VALID,0.163,
2017-09-09, 03:25:06,VALID,916.265,VALID,0.0,VALID,98.945,VALID,0.011,VALID,19.385,VALID,173.0,VALID,0.052,
2017-09-09, 03:26:06,VALID,916.259,VALID,0.0,VALID,98.958,VALID,0.009,VALID,19.353,VALID,169.0,VALID,0.167,
2017-09-09, 03:27:06,VALID,916.263,VALID,0.0,VALID,98.912,VALID,0.021,VALID,19.32,VALID,158.0,VALID,0.291,
2017-09-09, 03:28:06,VALID,916.254,VALID,0.0,VALID,98.916,VALID,0.019,VALID,19.302,VALID,157.0,VALID,0.322,
2017-09-09, 03:29:06,VALID,916.249,VALID,0.0,VALID,98.931,VALID,0.025,VALID,19.291,VALID,150.0,VALID,0.166,
2017-09-09, 03:30:06,VALID,916.24,VALID,0.0,VALID,98.952,VALID,0.021,VALID,19.28,VALID,127.0,VALID,0.296,
2017-09-09, 03:31:06,VALID,916.221,VALID,0.0,VALID,98.933,VALID,0.02,VALID,19.261,VALID,122.0,VALID,0.544,
2017-09-09, 03:32:06,VALID,916.205,VALID,0.0,VALID,98.929,VALID,0.031,VALID,19.253,VALID,111.0,VALID,0.605,
2017-09-09, 03:33:06,VALID,916.193,VALID,0.0,VALID,98.922,VALID,0.035,VALID,19.26,VALID,104.0,VALID,0.584,
2017-09-09, 03:34:06,VALID,916.179,VALID,0.0,VALID,98.945,VALID,0.017,VALID,19.25,VALID,96.0,VALID,0.503,
2017-09-09, 03:35:06,VALID,916.175,VALID,0.0,VALID,98.933,VALID,0.021,VALID,19.244,VALID,84.0,VALID,0.688,
2017-09-09, 03:36:06,VALID,916.168,VALID,0.0,VALID,98.929,VALID,0.012,VALID,19.244,VALID,93.0,VALID,0.793,
2017-09-09, 03:37:06,VALID,916.166,VALID,0.0,VALID,98.946,VALID,0.015,VALID,19.255,VALID,88.0,VALID,0.768,
2017-09-09, 03:38:06,VALID,916.176,VALID,0.0,VALID,98.943,VALID,0.018,VALID,19.256,VALID,85.0,VALID,0.792,
2017-09-09, 03:39:06,VALID,916.171,VALID,0.0,VALID,98.937,VALID,0.014,VALID,19.251,VALID,79.0,VALID,0.813,
2017-09-09, 03:40:06,VALID,916.162,VALID,0.0,VALID,98.932,VALID,0.02,VALID,19.284,VALID,73.0,VALID,0.903,